Terminal Aerodrome Forecast
Issued by NWS

Home | Current Version | Previous Version | Text Only | Print | Product List | Glossary On
Versions: 1 2 3 4 5 6 7 8 9 10 11 12 13 14 15 16 17 18 19 20 21 22 23 24 25 26 27 28 29 30 31 32 33 34 35 36 37 38 39 40 41
000
FTUS45 KSLC 251312 AAA
TAFEVW
TAF AMD
KEVW 251312Z 2513/2612 26018KT 5SM -SHSN BR BKN005 OVC012
      TEMPO 2513/2515 2SM -SN OVC003
     FM251800 24015G25KT 2SM -SN SCT005 BKN015
     FM260300 01010KT P6SM -SHSN SCT015 BKN035=

USA.gov is the U.S. government's official web portal to all federal, state and local government web resources and services.